Location: Landaff Center
(44.1751°N, 71.8870°W)
Time: 01:04:23
(UTC+00:00)

Daily predictions for brighter satellites

Satellite Brightness Start Highest point End
(mag) Time Altitude Azimuth Time Altitude Azimuth Time Altitude Azimuth
BREEZE-M DEB (TANK) 4.0 00:48:49 10° W 00:52:30 78° N 01:02:55 10° E
Cosmos 1066 Rocket 4.4 00:56:14 10° S 01:02:06 89° WNW 01:07:53 10° N
Cosmos 2251 Rocket 4.0 00:57:13 10° SSW 01:02:28 70° WNW 01:07:49 10° NNE
Cosmos 2360 Rocket 4.0 01:00:28 10° N 01:04:33 20° NE 01:08:37 10° E
Cosmos 1842 3.1 01:02:56 10° S 01:06:32 62° E 01:10:09 10° NNE
Centaur D AC-29 4.0 01:01:59 10° SW 01:07:14 27° SSE 01:25:11 10° ESE
Cosmos 407 Rocket 4.4 01:02:55 10° SW 01:08:02 56° WNW 01:13:08 10° NNE
Cosmos 540 Rocket 3.6 01:03:32 10° NNW 01:08:40 64° ENE 01:13:45 10° SSE
BREEZE-M DEB (TANK) 2.0 01:10:10 10° SW 01:12:23 58° SSE 01:15:16 10° ENE
BREEZE-M DEB (TANK) 3.9 00:58:43 10° WSW 01:13:31 75° NW 01:17:12 10° NE
MOS 1-B Rocket 4.5 01:08:43 10° S 01:14:50 61° WSW 01:20:27 10° NNW
SL-16 R/B 2.9 01:10:28 10° NNW 01:15:50 41° ENE 01:21:10 10° SE
RESURS DK-1 4.0 01:12:53 10° N 01:16:10 23° NE 01:19:25 10° ESE
Cosmos 2333 Rocket 3.8 01:13:00 10° N 01:17:28 23° NE 01:21:56 10° E
Cosmos 2082 Rocket 2.9 01:12:41 10° SW 01:18:20 62° WNW 01:24:00 10° NNE
Cosmos 2369 4.1 01:14:03 10° NNW 01:19:44 64° WSW 01:25:22 10° S
Cosmos 1954 Rocket 4.0 01:19:24 10° SSW 01:24:42 85° ESE 01:30:00 10° NNE
Atlas Centaur 2 3.9 01:18:20 10° WSW 01:25:06 30° S 01:32:04 10° SE
MOS 1 Rocket 4.5 01:20:29 10° SE 01:25:20 35° ENE 01:30:06 10° N
Okean-O 2.8 01:22:38 10° S 01:27:01 74° WSW 01:31:27 10° NNW
SeaSat 1 2.9 01:22:44 10° SE 01:27:29 52° ENE 01:32:15 10° NNW
EXPRESS MD2 3.0 01:24:33 10° WSW 01:27:53 60° NNW 01:30:11 10° ENE
Cosmos 1515 Rocket 4.0 01:26:00 10° SSW 01:30:17 64° W 01:34:37 10° N
Cosmos 1707 2.6 01:28:06 10° S 01:31:42 82° W 01:35:20 10° N
Cosmos 676 Rocket 4.0 01:30:23 10° SSW 01:35:42 86° ESE 01:41:03 10° NNE
USA 245 3.6 01:32:54 12° SE 01:35:52 49° ENE 01:40:01 10° N
CZ-4C R/B 3.5 01:31:48 10° NNE 01:35:58 85° WNW 01:40:05 10° SSW
IRS-1A Rocket 4.2 01:32:06 10° SSE 01:37:35 77° ENE 01:43:06 10° NNW
SPOT 5 2.7 01:35:36 10° S 01:39:53 80° WSW 01:44:18 10° NNW
Cosmos 1553 Rocket 4.2 01:34:33 10° N 01:40:44 77° W 01:46:59 10° S
MetOp-B 4.2 01:35:46 10° SSE 01:41:07 82° WSW 01:46:31 10° NNW
S3M 4.2 01:37:51 10° N 01:44:11 63° E 01:49:59 12° SSE
Cosmos 2228 Rocket 4.0 01:41:13 13° SSE 01:44:39 32° E 01:48:43 10° NNE
Okean O Rocket 3.7 01:43:54 10° SSW 01:47:29 24° W 01:51:04 10° NW
Tiangong -0.5 01:46:38 10° WSW 01:49:10 22° SSW 01:50:36 16° SSE
Cosmos 1869 Rocket 3.6 01:44:46 10° N 01:49:14 78° E 01:53:12 13° SSE
SL-4 R/B 4.0 01:48:19 10° WNW 01:51:40 28° N 01:55:13 10° NE
Cosmos 1356 Rocket 4.2 01:50:09 16° SSE 01:53:00 34° E 01:56:50 10° NNE
Cosmos 2266 Rocket 4.0 01:47:55 10° S 01:54:12 75° E 02:00:36 10° N
Meteor 1-22 Rocket 4.3 01:48:45 10° N 01:54:25 74° ENE 01:59:32 14° SSE
ERS-1 Rocket 3.0 01:50:48 12° SSE 01:55:27 89° ENE 02:00:31 10° NNW
Cosmos 1655 Rocket 4.3 01:49:34 10° SSE 01:55:44 54° E 02:01:57 10° NNE
Cosmos 1980 Rocket 4.1 01:52:31 10° NW 01:56:58 24° WSW 02:01:23 10° SSW
Cosmos 1400 Rocket 2.6 01:53:45 10° S 01:57:37 73° E 02:01:29 10° NNE
Cosmos 841 Rocket 3.5 01:52:35 10° NNW 01:57:52 75° ENE 02:01:57 17° SSE
Cosmos 2322 Rocket 2.5 01:53:19 10° NNW 01:58:55 56° ENE 02:03:10 17° SE
Timation 1 Rocket 4.3 01:55:14 10° SSW 02:01:09 73° ESE 02:07:06 10° NNE
USA 234 3.3 01:56:02 10° NE 02:02:36 89° SE 02:09:09 10° SW
ATLAS CENTAUR R/B 1.0 02:02:38 10° SSW 02:06:00 51° ESE 02:09:28 10° NE
Spot 2 Rocket 3.5 02:02:20 16° SSE 02:06:26 84° ENE 02:11:33 10° NNW
Cosmos 1300 2.9 02:03:56 10° N 02:07:25 49° E 02:09:14 24° SE
Cosmos 1441 Rocket 4.1 02:04:24 10° NNW 02:07:48 41° W 02:11:03 11° SSW
Aureole 3 4.4 02:08:07 21° SE 02:09:56 32° E 02:14:02 10° NNE
Cosmos 2278 4.1 02:04:58 10° NNW 02:10:37 61° WSW 02:15:10 16° S
Meteor 2-10 Rocket 3.6 02:05:48 10° N 02:11:24 77° E 02:15:20 19° SSE
Cosmos 1315 Rocket 4.2 02:14:28 19° ESE 02:15:30 21° E 02:18:33 10° NE
Meteor 1-21 4.4 02:11:46 16° S 02:16:21 57° E 02:22:03 10° NNE
Cosmos 1953 4.0 02:15:24 10° NNE 02:18:09 19° ENE 02:19:31 16° E
Terra 2.1 02:16:12 15° S 02:19:58 62° W 02:24:39 10° NNW
Cosmos 1862 Rocket 3.7 02:18:12 22° SSE 02:20:50 55° E 02:25:10 10° NNE
Cosmos 807 4.5 02:19:52 29° SSE 02:21:14 52° E 02:24:13 10° NNE
Cosmos 2219 Rocket 3.1 02:19:15 10° NNW 02:24:32 38° NE 02:28:14 18° ESE
Landsat 5 3.5 02:23:29 10° NNE 02:27:29 60° ESE 02:29:45 25° S
Ariane Rocket 3.3 02:27:25 18° S 02:31:11 62° WSW 02:36:15 10° NNW
Okean 3 3.4 02:32:23 28° SSE 02:34:22 61° E 02:38:29 10° NNE
BlueWalker 3 4.0 02:41:16 13° E 02:41:16 13° E 02:41:54 10° ENE
SL-27 R/B 2.1 02:38:02 30° SW 02:39:12 63° WNW 02:41:58 10° NNE
Cosmos 2315 Rocket 4.2 02:33:39 10° NNW 02:40:01 74° W 02:44:42 19° S
SL-14 R/B 3.7 02:37:34 16° SSW 02:40:22 55° W 02:44:07 10° N
Cosmos 1707 Rocket 3.7 02:38:10 18° SSW 02:41:25 74° W 02:45:52 10° N
COSMOS 2455 4.3 02:41:38 17° ESE 02:42:13 17° ESE 02:45:59 10° ENE
SJ 16-02 1.2 02:40:03 27° S 02:42:17 65° ESE 02:46:35 10° NNE
Cosmos 1850 Rocket 4.4 02:40:13 10° SSW 02:45:23 62° WNW 02:50:34 10° NNE
ATLAS 2AS CENTAUR R/B 2.6 02:39:12 10° NW 02:46:03 85° NE 02:50:04 26° SE
H-2A R/B 4.4 02:46:55 15° E 02:48:41 19° ENE 02:51:43 10° NNE
Cosmos 2360 Rocket 2.2 02:43:31 10° NNW 02:49:13 79° WSW 02:52:15 29° SSE
Cosmos 1346 Rocket 3.1 02:45:49 10° NNW 02:49:37 58° W 02:51:15 30° SSW
Meteor 1-4 Rocket 1.9 02:49:24 64° SSE 02:49:44 74° E 02:52:43 10° NNE
Cosmos 1932 4.4 02:47:18 10° SSW 02:53:37 71° ESE 02:59:53 10° NE
RESURS DK-1 3.4 02:50:14 10° NW 02:53:59 36° WSW 02:55:35 25° SSW
SPOT 3 Rocket 4.4 02:51:36 18° SSW 02:55:05 42° W 02:59:59 10° NNW
ARIANE 5 R/B 3.4 02:53:44 28° ESE 02:55:17 38° ENE 02:59:18 10° N
SL-16 R/B 3.5 02:54:49 10° NW 02:59:46 32° WSW 03:03:14 17° SSW
Cosmos 968 Rocket 3.8 02:57:16 11° SSW 03:02:12 63° WNW 03:07:22 10° NNE
Cosmos 2333 Rocket 2.4 02:56:33 10° NNW 03:02:17 69° WSW 03:05:07 31° S
USA 281 3.5 02:58:49 24° SE 03:02:46 59° ENE 03:09:12 10° NNW
Cosmos 1733 Rocket 3.9 02:59:22 10° NNW 03:03:35 45° W 03:05:49 24° SSW
SeaSat 1 4.1 03:02:21 15° SSW 03:05:09 23° WSW 03:09:01 10° NW
Cosmos 1455 1.9 03:06:27 10° N 03:09:57 64° E 03:10:21 58° ESE
Cosmos 839 Rocket 4.0 03:05:39 10° NNW 03:12:32 89° SW 03:15:33 33° SSE
Okean 1-7 3.0 03:11:24 37° SSW 03:13:04 82° W 03:17:26 10° N
Cosmos 1814 Rocket 4.1 03:07:51 10° NNW 03:13:09 71° WSW 03:15:23 35° S
Atlas Centaur 2 4.0 03:07:12 10° WSW 03:13:25 24° SSW 03:14:18 23° S
Cosmos 1242 Rocket 2.9 03:15:36 39° NE 03:15:36 39° NE 03:17:36 10° NNE
GP-B 3.2 03:10:37 10° N 03:14:59 59° E 03:16:05 44° SE
Cosmos 1908 Rocket 3.4 03:13:02 10° N 03:17:24 80° E 03:18:33 48° SSE
Cosmos 1782 Rocket 4.1 03:15:59 10° N 03:20:08 43° ENE 03:21:05 37° ESE
GENESIS II 4.0 03:20:55 59° ESE 03:20:55 59° ESE 03:24:22 10° NE
Cosmos 2237 Rocket 4.0 03:19:04 10° N 03:23:34 23° NE 03:27:33 12° E
Cosmos 2322 3.9 03:20:32 10° NNW 03:26:11 64° ENE 03:28:35 34° SE
Cosmos 1745 Rocket 4.1 03:24:05 34° SSE 03:26:46 62° E 03:33:03 10° NNE
Cosmos 2227 Rocket 4.2 03:28:54 12° E 03:29:11 12° E 03:31:09 10° ENE
Cosmos 1408 3.7 03:31:03 25° ENE 03:31:03 25° ENE 03:32:51 10° NNE
SL-4 R/B 3.6 03:27:32 10° NW 03:31:12 34° NNE 03:35:03 10° E
Cosmos 2208 Rocket 4.4 03:26:41 10° NNW 03:31:47 53° ENE 03:33:39 35° ESE
MINOTAUR 4 R/B 4.1 03:31:27 10° NNE 03:33:49 54° NNE 03:33:49 54° NNE
Nadezhda 1 Rocket 4.0 03:30:58 10° N 03:37:17 79° E 03:39:51 38° SSE
Okean 2 4.3 03:36:15 29° SW 03:37:43 42° WNW 03:41:33 10° N
H-2A R/B 4.3 03:36:03 10° ENE 03:37:37 12° E 03:37:37 12° E
Cosmos 1300 Rocket 3.7 03:34:29 10° N 03:38:43 56° E 03:39:27 49° ESE
Cosmos 1386 Rocket 4.4 03:37:50 34° S 03:40:48 90° NNW 03:47:03 10° N
Cosmos 2322 Rocket 3.8 03:38:10 10° NW 03:42:31 23° W 03:44:58 17° SW
ATLAS CENTAUR R/B 4.0 03:41:37 10° W 03:43:56 16° NW 03:46:19 10° N
CENTAUR R/B 4.2 03:46:31 14° ESE 03:46:34 14° ESE 03:49:37 10° ENE
ALOS 2 3.3 03:45:46 38° ESE 03:46:45 44° ENE 03:50:56 10° N
Cosmos 2297 Rocket 2.9 03:47:55 33° ESE 03:48:41 34° ESE 03:53:44 10° NE
PSLV R/B 4.0 03:45:17 10° N 03:49:16 70° WNW 03:50:01 54° SW
Cosmos 1315 Rocket 4.4 03:49:43 21° WSW 03:51:28 29° WNW 03:54:59 10° N
Cosmos 1953 3.5 03:50:39 10° NNW 03:54:03 30° W 03:54:38 29° WSW
Cosmos 1703 Rocket 4.5 03:55:52 30° SW 03:57:30 43° WNW 04:01:45 10° N
Meteor 2-5 Rocket 4.1 03:59:22 40° SE 04:01:03 52° E 04:06:43 10° NNE
Cosmos 1486 Rocket 3.9 04:06:10 51° S 04:07:30 81° ESE 04:12:43 10° NNE
COSMOS 2428 2.7 04:01:51 10° NNW 04:07:34 77° WSW 04:09:13 47° S
Cosmos 2219 Rocket 3.1 04:03:18 10° NW 04:08:24 35° WSW 04:09:56 30° SW
Cosmos 2242 Rocket 3.6 04:10:52 60° SSW 04:11:40 82° W 04:16:15 10° N
Cosmos 371 Rocket 3.2 04:12:01 60° S 04:12:49 76° ESE 04:17:38 10° NNE
BlueWalker 3 2.4 04:15:31 35° W 04:16:48 56° NNW 04:20:30 10° NE
Cosmos 405 Rocket 3.2 04:17:17 10° N 04:20:56 46° ENE 04:20:57 46° ENE
SJ 16-02 4.0 04:18:46 10° W 04:21:06 14° NW 04:23:26 10° NNW
Cosmos 1354 Rocket 4.3 04:21:24 46° SE 04:22:16 51° ESE 04:27:24 10° NNE
Cosmos 2263 Rocket 4.3 04:22:09 12° ESE 04:22:53 12° E 04:24:59 10° ENE
H-2A R/B 3.1 04:22:54 42° WSW 04:23:17 44° W 04:27:23 10° NNW
NOSS 0 Rocket 3.9 04:17:39 10° NNW 04:23:56 84° WSW 04:26:04 44° SSE
Cosmos 1709 Rocket 4.1 04:23:45 38° SSW 04:26:21 71° W 04:32:43 10° N
COSMOS 2455 2.8 04:24:42 35° SW 04:27:23 81° WNW 04:33:28 10° NNE
CZ-4C R/B 1.7 04:28:06 56° SW 04:29:07 88° NW 04:34:38 10° NE
ARIANE 5 R/B 4.3 04:31:12 20° WSW 04:31:48 21° W 04:35:05 10° NW
Cosmos 2360 Rocket 4.5 04:30:53 10° W 04:32:12 11° W 04:33:30 10° WSW
Spot 4 4.3 04:31:54 41° SW 04:32:40 45° W 04:37:17 10° NNW
ATLAS 2AS CENTAUR R/B 4.2 04:31:35 10° WNW 04:36:02 19° WSW 04:37:28 18° WSW
Cosmos 2184 Rocket 4.4 04:37:55 37° SE 04:40:02 52° E 04:46:12 10° NNE
Cosmos 1703 3.7 04:40:37 47° WNW 04:40:37 47° WNW 04:44:11 10° N
USA 281 4.3 04:45:41 25° SW 04:47:34 29° WSW 04:53:09 10° NW
PSLV R/B 3.4 04:45:27 10° N 04:49:40 74° WNW 04:50:04 67° WSW
Okean 1 Rocket 3.6 04:45:56 10° N 04:50:09 46° ENE 04:50:52 42° ESE
Cosmos 1892 2.9 04:50:46 57° NE 04:50:46 57° NE 04:53:47 10° NNE
Cosmos 2098 Rocket 4.1 04:45:07 10° NNW 04:51:43 71° W 04:53:52 43° SSW
Cosmos 2154 Rocket 4.3 04:54:44 39° SSE 04:56:51 56° E 05:02:58 10° NNE
SL-16 R/B 3.4 04:55:26 10° NNW 05:00:45 38° NE 05:04:46 16° ESE
Cosmos 332 Rocket 3.7 05:05:28 61° SSW 05:06:21 88° ESE 05:11:16 10° NNE
Cosmos 2237 Rocket 2.2 05:02:29 10° NNW 05:08:04 63° WSW 05:09:21 50° SSW
Cosmos 990 Rocket 4.1 05:08:21 49° SE 05:09:16 57° ESE 05:14:18 10° NNE
SL-4 R/B 1.9 05:06:09 10° WNW 05:10:17 84° SW 05:10:26 82° S
Cosmos 773 Rocket 4.5 05:06:00 10° NW 05:10:50 41° WSW 05:11:26 40° WSW
Cosmos 2227 Rocket 2.1 05:10:41 49° SSW 05:12:17 84° ESE 05:17:59 10° NNE
Cosmos 1975 Rocket 4.4 05:12:51 26° ESE 05:13:40 27° E 05:17:23 10° NNE
H-2A R/B 2.1 05:09:42 10° N 05:13:55 62° WNW 05:14:25 56° WSW
Cosmos 2084 Rocket 3.7 05:18:11 48° W 05:19:02 60° NW 05:23:10 10° NNE
Cosmos 2151 Rocket 4.0 05:16:35 10° NNW 05:20:48 46° W 05:21:05 45° WSW
Cosmos 1980 4.1 05:15:42 10° NW 05:21:06 46° WSW 05:22:05 42° SW
Cosmos 1825 2.7 05:23:13 45° WNW 05:23:13 45° WNW 05:26:12 10° N
ALOS 2 4.4 05:23:09 18° W 05:23:17 18° W 05:26:22 10° NW
GEOS 3 Rocket 3.5 05:18:17 10° NE 05:23:28 82° NW 05:25:12 43° SW
CZ-2D R/B 4.4 05:21:19 10° ENE 05:23:30 12° E 05:25:39 10° ESE
Cosmos 1538 Rocket 4.2 05:20:44 10° NNW 05:25:56 67° ENE 05:28:00 36° SE
Meteor 1-21 Rocket 4.4 05:25:31 42° SSE 05:27:24 64° E 05:33:03 10° NNE
Cosmos 1455 Rocket 3.7 05:23:09 10° N 05:27:29 49° ENE 05:28:40 38° ESE
Okean 2 Rocket 3.6 05:23:17 10° NNW 05:27:32 43° W 05:27:55 42° WSW
Cosmos 1174 3.9 05:23:54 10° NW 05:28:34 62° WSW 05:28:34 62° WSW
BREEZE-M DEB (TANK) 2.7 05:25:37 10° WNW 05:32:03 62° NNE 05:33:31 26° E
Cosmos 2297 Rocket 3.2 05:29:40 22° WSW 05:32:39 38° NW 05:37:55 10° NNE
Cosmos 1674 Rocket 4.4 05:32:54 34° W 05:33:37 37° WNW 05:37:41 10° N
Cosmos 2219 3.2 05:33:16 46° S 05:34:54 71° ESE 05:40:30 10° NNE
CENTAUR R/B 2.3 05:33:38 42° SW 05:35:44 88° SE 05:42:41 10° NE
Cosmos 2074 Rocket 4.3 05:38:32 35° SW 05:40:54 54° WNW 05:46:59 10° N
Cosmos 1025 Rocket 2.9 05:40:57 61° SW 05:41:34 74° W 05:45:55 10° N
Aureole 1 Rocket 2.7 05:42:32 64° ESE 05:42:35 64° ESE 05:46:44 10° NNE
Cosmos 1606 4.3 05:41:45 10° NNE 05:44:47 25° ENE 05:45:56 21° ESE
Cosmos 2341 Rocket 4.5 05:42:56 30° SSE 05:45:48 53° E 05:51:49 10° NNE
ADEOS II 4.4 05:47:10 10° ENE 05:49:57 14° E 05:52:42 10° ESE
TIMED 4.4 05:51:00 61° S 05:51:42 82° ESE 05:56:02 10° NNE
CRYOSAT 2 4.4 05:49:23 10° N 05:54:18 77° E 05:55:48 45° S
BlueWalker 3 4.3 05:52:34 10° WNW 05:55:33 22° N 05:58:33 10° NE
Helios 1A Rocket 2.7 05:58:05 61° SSE 05:58:42 80° ENE 06:02:30 10° NNW
Cosmos 1937 Rocket 3.9 05:58:26 37° SSE 06:00:13 54° ESE 06:05:21 10° NNE
Cosmos 1461 3.3 06:00:58 42° SE 06:01:14 43° ESE 06:04:58 10° NE
Resurs 1-4 Rocket 3.5 05:58:55 10° NE 06:03:31 30° E 06:06:19 19° SE
MOZ.5/SAFIR/RUBIN 5/SL-8 4.1 06:01:24 29° SE 06:03:38 60° ENE 06:08:13 10° N
Cosmos 1898 Rocket 3.4 06:01:59 44° S 06:03:40 79° ESE 06:08:51 10° NNE
Cosmos 2263 Rocket 2.1 06:03:48 40° SSW 06:05:53 87° ESE 06:11:30 10° NNE
Elektron 3 4.4 06:12:40 10° NW 06:17:29 50° WSW 06:17:29 50° WSW
CZ-4C R/B 4.3 06:14:46 10° WNW 06:18:31 21° NNW 06:22:55 10° NNE
SL-19 R/B 4.4 06:17:01 10° N 06:19:43 40° WNW 06:19:43 40° WNW
NOSS 3-2 (A) 3.3 06:18:58 32° SW 06:21:29 68° NW 06:27:36 10° NE
Cosmos 2218 Rocket 4.0 06:18:48 30° S 06:22:06 78° E 06:28:18 10° N
Orbus 7S? 4.4 06:21:22 10° NW 06:24:01 39° NE 06:28:00 10° ESE
Cosmos 1844 Rocket 4.2 06:22:41 16° SSE 06:25:55 26° ESE 06:30:28 10° NE
NOSS 3-2 (C) 3.3 06:25:20 35° S 06:27:29 64° ESE 06:33:26 10° NE
Cosmos 2366 rocket 4.0 06:25:41 30° S 06:29:02 89° W 06:35:19 10° N
Cosmos 1869 3.0 06:26:44 10° N 06:30:26 82° W 06:31:19 50° S
USA 267 4.3 06:27:47 10° ENE 06:33:23 30° SE 06:36:41 20° S
Cosmos 1680 Rocket 3.4 06:31:00 10° NNW 06:36:14 87° ENE 06:40:02 19° SSE
Cosmos 1818 3.5 06:32:44 10° NW 06:38:15 87° WSW 06:43:43 10° SSE
Cosmos 2112 Rocket 4.1 06:33:15 10° NNW 06:38:28 77° ENE 06:42:52 14° SSE
MSX 3.9 06:33:23 10° NNE 06:39:07 70° ESE 06:42:31 25° S
Cosmos 1544 Rocket 3.5 06:34:41 10° N 06:39:09 78° W 06:41:02 34° S
Cosmos 1437 Rocket 3.8 06:37:53 23° SE 06:39:41 37° E 06:43:13 10° NNE
Cosmos 2228 2.9 06:38:53 10° N 06:43:14 86° E 06:45:26 28° S
SL-16 R/B 2.9 06:39:41 10° NW 06:44:47 35° WSW 06:46:35 28° SW
BREEZE-M DEB (TANK) 1.7 06:49:10 50° SSE 06:49:10 50° SSE 06:52:25 10° SE
Cosmos 1603 4.4 06:44:08 10° NNW 06:49:47 55° ENE 06:55:23 10° SE
Cosmos 1975 Rocket 4.4 06:49:56 22° WSW 06:51:23 27° WNW 06:55:09 10° NNW
SL-16 R/B 3.5 06:46:46 10° SE 06:52:43 49° ENE 06:58:40 10° N
Cosmos 2082 4.4 06:51:06 22° WSW 06:54:22 43° WNW 06:59:44 10° NNE
IDEFIX/ARIANE 42P 2.6 06:49:17 10° N 06:54:31 75° WNW 06:57:28 27° SSW
Cosmos 2227 Rocket 4.2 06:53:10 10° W 06:57:04 19° NW 07:01:00 10° N
H-2A R/B 3.3 06:54:13 10° N 06:58:11 70° WNW 06:59:56 32° SSW
CZ-2C R/B 2.5 06:55:47 18° S 06:59:42 79° WSW 07:05:07 10° NNW
Cosmos 1943 3.1 06:54:09 10° NNW 06:59:47 82° WSW 07:05:23 10° SSE
CZ-2C R/B 3.2 06:54:58 10° NNE 07:00:26 76° ESE 07:03:52 21° S
SL-8 Rocket 4.5 06:57:09 24° SW 07:00:34 46° WNW 07:06:30 10° N
CZ-2D R/B 2.1 06:58:51 10° NNE 07:04:13 87° WNW 07:07:38 23° SSW
FENGYUN 3A 3.9 07:01:54 10° NNE 07:07:16 67° ESE 07:11:23 17° S
Cosmos 1606 Rocket 3.9 07:10:15 10° N 07:14:41 67° E 07:19:04 10° SSE
Cosmos 921 Rocket 3.3 07:11:31 10° NNW 07:15:45 65° ENE 07:19:52 10° SSE
ASTEX 1 3.6 07:13:02 10° SSE 07:17:51 70° E 07:22:42 10° N
GRACE-FO 1 4.4 07:17:07 25° S 07:19:04 74° W 07:22:37 10° N
Cosmos 1606 4.1 07:16:41 10° NW 07:19:17 19° W 07:19:53 18° WSW
GRACE-FO 2 4.4 07:17:32 24° S 07:19:30 73° W 07:23:03 10° N
Cosmos 1727 Rocket 4.0 07:13:37 10° NNW 07:19:55 69° W 07:25:41 13° S
Cosmos 1536 Rocket 4.0 07:18:23 23° SW 07:20:50 48° WNW 07:25:08 10° N
NPP 4.2 07:16:03 10° N 07:21:11 47° WNW 07:24:46 19° SW
Cosmos 2239 Rocket 4.5 07:16:21 16° S 07:21:24 90° SE 07:27:34 10° N
Cosmos 1867 3.6 07:20:35 21° SSW 07:24:21 85° ESE 07:29:52 10° NE
CENTAUR R/B 4.3 07:22:15 10° W 07:27:26 27° NNW 07:33:34 10° NNE
Cosmos 494 Rocket 4.0 07:23:58 10° NNW 07:29:14 84° WSW 07:34:29 10° SSE
ADEOS II 2.1 07:24:53 10° N 07:30:08 76° WNW 07:34:19 16° SSW
Cosmos 1726 Rocket 3.8 07:25:45 10° N 07:30:12 73° E 07:34:36 10° SSE
USA 238 DEB 3.5 07:28:50 18° SW 07:33:37 85° NW 07:40:22 10° NE
USA 238 3.5 07:28:52 18° SW 07:33:40 86° NW 07:40:26 10° NE
Cosmos 1000 Rocket 4.5 07:27:51 10° N 07:34:09 76° W 07:40:20 10° S
BlueWalker 3 4.4 07:31:36 10° NW 07:34:39 23° NNE 07:37:41 10° ENE
Cosmos 1812 3.4 07:32:50 10° N 07:36:19 48° E 07:39:47 10° SSE
Cosmos 1844 3.8 07:33:31 16° SSW 07:38:14 87° ESE 07:44:04 10° NNE
Cosmos 2058 3.8 07:37:04 10° SSE 07:40:55 46° E 07:44:51 10° NNE
Iridium 2 2.7 07:39:24 18° S 07:41:05 73° E 07:43:34 10° N
USA 81 4.4 07:35:54 10° N 07:41:10 66° E 07:46:23 10° SSE
Resurs 1-4 Rocket 2.9 07:38:30 10° N 07:43:21 38° WNW 07:47:22 14° SW
SAR-Lupe-4 3.7 07:41:30 10° NNE 07:45:04 71° ESE 07:48:22 12° S
Iridium 4 Rocket 3.9 07:42:32 10° N 07:46:55 56° E 07:51:38 10° SSE
ATLAS 5 CENTAUR R/B 3.4 07:46:51 10° SE 07:48:27 13° ESE 07:50:06 10° E
Cosmos 2263 Rocket 4.1 07:46:53 10° W 07:50:35 18° NW 07:54:16 10° N
Cosmos 724 4.5 07:47:40 10° NNW 07:53:31 78° ENE 07:59:22 10° SE
UNK 3.7 07:50:03 10° SSE 07:54:39 86° W 07:59:16 10° NNW
AQUA 4.2 07:51:14 10° N 07:55:49 51° WNW 08:00:01 12° SW
Meteor 1-28 Rocket 4.0 08:01:25 11° SSW 08:04:21 30° W 08:07:31 10° NNW
Cosmos 2058 Rocket 3.0 08:03:51 10° N 08:08:19 84° W 08:12:41 10° S
ALOS 2.6 08:04:15 10° N 08:08:44 51° WNW 08:13:11 10° SSW
Cosmos 1844 Rocket 3.2 08:04:20 11° SW 08:09:28 48° WNW 08:14:53 10° NNE
Cosmos 1892 Rocket 3.9 08:05:38 10° SSW 08:09:53 51° WNW 08:14:13 10° N
METEOR-M 4.3 08:04:50 10° NNE 08:10:12 76° ESE 08:15:32 10° S
Cosmos 1607 4.0 08:07:50 10° NW 08:14:09 62° WSW 08:20:17 10° SSE
Cosmos 1544 2.2 08:12:15 10° S 08:14:51 82° E 08:17:29 10° N
Cosmos 2298 Rocket 4.5 08:10:07 10° S 08:15:21 64° ESE 08:20:38 10° NNE
USA 267 3.4 08:10:16 10° NE 08:16:49 82° NW 08:23:22 10° WSW
NOSS 2-2 (C) 4.0 08:14:18 10° S 08:17:23 34° ESE 08:20:14 10° NE
Alouette 2 Rocket 3.9 08:15:00 10° SSW 08:19:40 48° WNW 08:23:18 10° N
Cosmos 1605 Rocket 4.0 08:14:41 10° S 08:20:54 85° W 08:27:04 10° N
CZ-4 R/B 4.0 08:24:11 10° NNE 08:29:07 80° WNW 08:34:04 10° SSW
H-2A R/B 3.8 08:26:27 10° NNE 08:31:14 33° E 08:35:53 10° SSE
Cosmos 2278 Rocket 4.3 08:27:24 10° SSE 08:31:54 25° ESE 08:36:23 10° NE
